• In Spain
  • List of Countries
  • For 7 days
  • Water Temperature
  • Satellite Maps
  • Weather Map
  • Weather Widgets
  • user-avatar
    Login

    Hourly Weather Sao Bras de Alportel

    Today, 24 November, Friday

    Time Temperature Precipitation Wind Pressure Humidity
    00:00 +15°C° 0 mm 2 mps 744 mmHg 93%
    01:00 +14°C° 0 mm 2 mps 744 mmHg 93%
    02:00 +14°C° 0 mm 2 mps 743 mmHg 92%
    03:00 +14°C° 0 mm 2 mps 743 mmHg 91%
    04:00 +14°C° 0 mm 2 mps 743 mmHg 90%
    05:00 +13°C° 0 mm 3 mps 744 mmHg 89%
    06:00 +14°C° 0 mm 3 mps 744 mmHg 84%
    07:00 +16°C° 0 mm 3 mps 744 mmHg 78%
    08:00 +17°C° 0 mm 3 mps 744 mmHg 72%
    09:00 +19°C° 0 mm 4 mps 744 mmHg 61%
    10:00 +21°C° 0 mm 4 mps 744 mmHg 50%
    11:00 +23°C° 0 mm 5 mps 744 mmHg 39%
    12:00 +23°C° 0 mm 4 mps 744 mmHg 37%
    13:00 +23°C° 0 mm 4 mps 743 mmHg 35%
    14:00 +23°C° 0 mm 4 mps 743 mmHg 32%
    15:00 +21°C° 0 mm 4 mps 743 mmHg 42%
    16:00 +19°C° 0 mm 3 mps 743 mmHg 51%
    17:00 +16°C° 0 mm 3 mps 743 mmHg 61%
    18:00 +16°C° 0 mm 3 mps 743 mmHg 66%
    19:00 +15°C° 0 mm 2 mps 744 mmHg 71%
    20:00 +14°C° 0 mm 2 mps 744 mmHg 76%
    21:00 +14°C° 0 mm 2 mps 744 mmHg 77%
    22:00 +14°C° 0 mm 2 mps 744 mmHg 78%
    23:00 +14°C° 0 mm 2 mps 744 mmHg 79%

    Tomorrow, 25 November, Saturday

    Time Temperature Precipitation Wind Pressure Humidity
    00:00 +13°C° 0 mm 2 mps 744 mmHg 79%
    01:00 +13°C° 0 mm 2 mps 744 mmHg 80%
    02:00 +13°C° 0 mm 1 mps 743 mmHg 80%
    03:00 +13°C° 0 mm 2 mps 744 mmHg 80%
    04:00 +13°C° 0 mm 2 mps 744 mmHg 79%
    05:00 +13°C° 0 mm 2 mps 744 mmHg 79%
    06:00 +14°C° 0 mm 2 mps 744 mmHg 74%
    07:00 +15°C° 0 mm 2 mps 744 mmHg 69%
    08:00 +16°C° 0 mm 2 mps 745 mmHg 64%
    09:00 +18°C° 0 mm 2 mps 745 mmHg 57%
    10:00 +20°C° 0 mm 2 mps 745 mmHg 51%
    11:00 +23°C° 0 mm 2 mps 745 mmHg 44%
    12:00 +23°C° 0 mm 2 mps 745 mmHg 43%
    13:00 +24°C° 0 mm 2 mps 745 mmHg 41%
    14:00 +24°C° 0 mm 2 mps 744 mmHg 40%
    15:00 +22°C° 0 mm 1 mps 745 mmHg 47%
    16:00 +21°C° 0 mm 1 mps 745 mmHg 53%
    17:00 +19°C° 0 mm 1 mps 745 mmHg 60%
    18:00 +18°C° 0 mm 1 mps 745 mmHg 62%
    19:00 +18°C° 0 mm 1 mps 746 mmHg 64%
    20:00 +16°C° 0 mm 2 mps 746 mmHg 66%
    21:00 +16°C° 0 mm 2 mps 746 mmHg 68%
    22:00 +16°C° 0 mm 3 mps 746 mmHg 69%
    23:00 +14°C° 0 mm 3 mps 746 mmHg 70%

    Day after tomorrow, 26 November, Sunday

    Time Temperature Precipitation Wind Pressure Humidity
    00:00 +16°C° 0 mm 3 mps 746 mmHg 68%
    01:00 +15°C° 0 mm 4 mps 746 mmHg 66%
    02:00 +15°C° 0 mm 4 mps 746 mmHg 64%
    03:00 +15°C° 0 mm 4 mps 746 mmHg 64%
    04:00 +16°C° 0 mm 3 mps 746 mmHg 65%
    05:00 +16°C° 0 mm 3 mps 746 mmHg 65%
    06:00 +16°C° 0 mm 3 mps 747 mmHg 64%
    07:00 +17°C° 0 mm 3 mps 747 mmHg 63%
    08:00 +17°C° 0 mm 3 mps 748 mmHg 62%
    09:00 +18°C° 0 mm 3 mps 748 mmHg 57%
    10:00 +19°C° 0 mm 3 mps 748 mmHg 53%
    11:00 +20°C° 0 mm 3 mps 748 mmHg 49%
    12:00 +21°C° 0 mm 3 mps 748 mmHg 47%
    13:00 +21°C° 0 mm 3 mps 748 mmHg 46%
    14:00 +22°C° 0 mm 4 mps 747 mmHg 44%
    15:00 +20°C° 0 mm 3 mps 747 mmHg 50%
    16:00 +18°C° 0 mm 3 mps 747 mmHg 56%
    17:00 +17°C° 0 mm 3 mps 747 mmHg 61%
    18:00 +16°C° 0 mm 3 mps 748 mmHg 62%
    19:00 +16°C° 0 mm 3 mps 748 mmHg 63%
    20:00 +16°C° 0 mm 3 mps 748 mmHg 64%
    21:00 +16°C° 0 mm 3 mps 748 mmHg 64%
    22:00 +16°C° 0 mm 3 mps 748 mmHg 63%
    23:00 +16°C° 0 mm 3 mps 748 mmHg 62%

    27 November, Monday

    Time Temperature Precipitation Wind Pressure Humidity
    00:00 +16°C° 0 mm 3 mps 748 mmHg 64%
    01:00 +16°C° 0 mm 3 mps 747 mmHg 67%
    02:00 +15°C° 0 mm 4 mps 747 mmHg 69%
    03:00 +15°C° 0.1 mm 4 mps 747 mmHg 70%
    04:00 +15°C° 0.1 mm 4 mps 747 mmHg 71%
    05:00 +15°C° 0.1 mm 4 mps 747 mmHg 72%
    06:00 +15°C° 1 mm 4 mps 747 mmHg 75%
    07:00 +14°C° 1 mm 4 mps 748 mmHg 78%
    08:00 +14°C° 1 mm 3 mps 748 mmHg 81%
    09:00 +15°C° 0.7 mm 4 mps 748 mmHg 80%
    10:00 +15°C° 0.7 mm 4 mps 748 mmHg 80%
    11:00 +15°C° 0.7 mm 5 mps 748 mmHg 79%
    12:00 +15°C° 0 mm 4 mps 747 mmHg 76%
    13:00 +17°C° 0 mm 4 mps 747 mmHg 74%
    14:00 +17°C° 0 mm 4 mps 746 mmHg 72%
    15:00 +17°C° 0 mm 4 mps 746 mmHg 76%
    16:00 +15°C° 0 mm 4 mps 746 mmHg 80%
    17:00 +14°C° 0 mm 4 mps 746 mmHg 84%
    18:00 +14°C° 0 mm 4 mps 746 mmHg 85%
    19:00 +14°C° 0 mm 4 mps 746 mmHg 86%
    20:00 +14°C° 0 mm 4 mps 746 mmHg 88%
    21:00 +14°C° 0 mm 4 mps 746 mmHg 88%
    22:00 +14°C° 0 mm 4 mps 745 mmHg 89%
    23:00 +14°C° 0 mm 4 mps 745 mmHg 89%

    28 November, Tuesday

    Time Temperature Precipitation Wind Pressure Humidity
    00:00 +14°C° 0 mm 4 mps 745 mmHg 90%
    01:00 +14°C° 0 mm 4 mps 744 mmHg 90%
    02:00 +14°C° 0 mm 4 mps 744 mmHg 91%
    03:00 +14°C° 0 mm 4 mps 744 mmHg 92%
    04:00 +14°C° 0 mm 4 mps 743 mmHg 92%
    05:00 +14°C° 0 mm 4 mps 743 mmHg 93%
    06:00 +14°C° 0.1 mm 5 mps 743 mmHg 91%
    07:00 +15°C° 0.1 mm 5 mps 743 mmHg 89%
    08:00 +15°C° 0.1 mm 5 mps 743 mmHg 86%
    09:00 +16°C° 0.1 mm 5 mps 742 mmHg 82%
    10:00 +17°C° 0.1 mm 6 mps 742 mmHg 78%
    11:00 +19°C° 0.1 mm 6 mps 742 mmHg 74%
    12:00 +20°C° 0.2 mm 6 mps 741 mmHg 72%
    13:00 +20°C° 0.2 mm 5 mps 740 mmHg 71%
    14:00 +20°C° 0.2 mm 5 mps 739 mmHg 70%
    15:00 +19°C° 0.2 mm 5 mps 739 mmHg 76%
    16:00 +18°C° 0.2 mm 4 mps 739 mmHg 83%
    17:00 +17°C° 0.2 mm 4 mps 739 mmHg 89%
    18:00 +15°C° 0.6 mm 4 mps 739 mmHg 91%
    19:00 +15°C° 0.6 mm 4 mps 738 mmHg 93%
    20:00 +15°C° 0.6 mm 4 mps 738 mmHg 94%
    21:00 +15°C° 0.6 mm 5 mps 738 mmHg 95%
    22:00 +14°C° 0.6 mm 5 mps 738 mmHg 95%
    23:00 +14°C° 0.6 mm 5 mps 737 mmHg 95%

    29 November, Wednesday

    Time Temperature Precipitation Wind Pressure Humidity
    00:00 +14°C° 0.2 mm 5 mps 737 mmHg 96%
    01:00 +14°C° 0.2 mm 5 mps 736 mmHg 96%
    02:00 +14°C° 0.2 mm 5 mps 736 mmHg 96%
    03:00 +14°C° 0.1 mm 5 mps 736 mmHg 96%
    04:00 +13°C° 0.1 mm 5 mps 736 mmHg 96%
    05:00 +13°C° 0.1 mm 5 mps 735 mmHg 97%
    06:00 +14°C° 0 mm 5 mps 736 mmHg 95%
    07:00 +14°C° 0 mm 5 mps 736 mmHg 93%
    08:00 +15°C° 0 mm 5 mps 736 mmHg 90%
    09:00 +15°C° 0 mm 5 mps 736 mmHg 87%
    10:00 +16°C° 0 mm 5 mps 736 mmHg 84%
    11:00 +16°C° 0 mm 5 mps 736 mmHg 81%
    12:00 +16°C° 0 mm 5 mps 736 mmHg 78%
    13:00 +17°C° 0 mm 4 mps 736 mmHg 76%
    14:00 +18°C° 0 mm 4 mps 736 mmHg 73%
    15:00 +17°C° 0 mm 4 mps 736 mmHg 74%
    16:00 +15°C° 0 mm 4 mps 737 mmHg 75%
    17:00 +14°C° 0 mm 4 mps 737 mmHg 77%
    18:00 +13°C° 0 mm 4 mps 737 mmHg 77%
    19:00 +11°C° 0 mm 4 mps 738 mmHg 77%
    20:00 +10°C° 0 mm 4 mps 738 mmHg 77%
    21:00 +10°C° 0 mm 4 mps 738 mmHg 79%
    22:00 +8°C° 0 mm 4 mps 739 mmHg 81%
    23:00 +8°C° 0 mm 4 mps 739 mmHg 83%
    Show more